Location: *
(50.2903°S, 172.5375°W)
Time: 08:22:38
(UTC+00:00)

Cosmos 1777 Rocket - Pass Details

Date: 17 November 2019
Orbit: 759 x 775 km, 74.0° (Epoch: 09 December)

Event Time Altitude Azimuth Distance (km) Brightness Sun altitude
Rises 12:10:45 0° 205° (SSW) 3,298 8.1 -19.6°
Reaches altitude 10° 12:13:09 10° 204° (SSW) 2,363 7.2 -19.6°
Maximum altitude 12:18:33 89° 115° (ESE) 793 4.0 -19.3°
Enters shadow 12:21:27 28° 23° (NNE) 1,431 5.0 -19.2°
